Tiempo cada hora Macapa

Hoy, 20 Octubre, Martes

Tiempo Temperatura Precipitaciones Viento Presión Humedad
00:00 +27°C° 0 mm 3 mps 757 mmHg 82%
01:00 +27°C° 0 mm 3 mps 756 mmHg 84%
02:00 +27°C° 0 mm 3 mps 756 mmHg 86%
03:00 +26°C° 0 mm 3 mps 756 mmHg 88%
04:00 +26°C° 0 mm 2 mps 756 mmHg 90%
05:00 +26°C° 0 mm 2 mps 756 mmHg 91%
06:00 +26°C° 0 mm 2 mps 756 mmHg 93%
07:00 +28°C° 0 mm 2 mps 757 mmHg 82%
08:00 +30°C° 0 mm 3 mps 757 mmHg 72%
09:00 +34°C° 0 mm 3 mps 758 mmHg 61%
10:00 +35°C° 0 mm 3 mps 758 mmHg 55%
11:00 +36°C° 0 mm 4 mps 758 mmHg 48%
12:00 +38°C° 0 mm 4 mps 757 mmHg 41%
13:00 +38°C° 0 mm 4 mps 757 mmHg 42%
14:00 +39°C° 0 mm 5 mps 756 mmHg 42%
15:00 +39°C° 0 mm 5 mps 755 mmHg 42%
16:00 +36°C° 0 mm 5 mps 755 mmHg 48%
17:00 +35°C° 0 mm 5 mps 755 mmHg 53%
18:00 +33°C° 0 mm 5 mps 755 mmHg 59%
19:00 +32°C° 0 mm 5 mps 756 mmHg 64%
20:00 +30°C° 0 mm 4 mps 757 mmHg 70%
21:00 +29°C° 0 mm 4 mps 757 mmHg 75%
22:00 +29°C° 0 mm 4 mps 757 mmHg 78%
23:00 +28°C° 0 mm 4 mps 758 mmHg 80%

Mañana, 21 Octubre, Miércoles

Tiempo Temperatura Precipitaciones Viento Presión Humedad
00:00 +28°C° 0 mm 3 mps 758 mmHg 82%
01:00 +27°C° 0 mm 3 mps 757 mmHg 83%
02:00 +27°C° 0 mm 3 mps 757 mmHg 84%
03:00 +27°C° 0 mm 3 mps 756 mmHg 86%
04:00 +27°C° 0 mm 3 mps 756 mmHg 86%
05:00 +27°C° 0 mm 3 mps 756 mmHg 87%
06:00 +26°C° 0 mm 3 mps 757 mmHg 88%
07:00 +28°C° 0 mm 3 mps 757 mmHg 79%
08:00 +30°C° 0 mm 4 mps 758 mmHg 70%
09:00 +33°C° 0 mm 4 mps 759 mmHg 61%
10:00 +35°C° 0 mm 4 mps 759 mmHg 55%
11:00 +36°C° 0 mm 5 mps 759 mmHg 49%
12:00 +39°C° 0 mm 5 mps 758 mmHg 44%
13:00 +39°C° 0 mm 5 mps 758 mmHg 43%
14:00 +39°C° 0 mm 5 mps 757 mmHg 42%
15:00 +39°C° 0 mm 5 mps 756 mmHg 41%
16:00 +36°C° 0 mm 5 mps 756 mmHg 46%
17:00 +35°C° 0 mm 5 mps 756 mmHg 50%
18:00 +33°C° 0 mm 4 mps 756 mmHg 55%
19:00 +32°C° 0 mm 4 mps 757 mmHg 61%
20:00 +30°C° 0 mm 4 mps 758 mmHg 68%
21:00 +29°C° 0 mm 5 mps 758 mmHg 74%
22:00 +29°C° 0 mm 4 mps 758 mmHg 77%
23:00 +28°C° 0 mm 4 mps 758 mmHg 81%

Pasado mañana, 22 Octubre, Jueves

Tiempo Temperatura Precipitaciones Viento Presión Humedad
00:00 +28°C° 0 mm 4 mps 758 mmHg 84%
01:00 +27°C° 0 mm 3 mps 757 mmHg 86%
02:00 +27°C° 0 mm 3 mps 757 mmHg 89%
03:00 +26°C° 0 mm 3 mps 756 mmHg 91%
04:00 +26°C° 0 mm 3 mps 756 mmHg 92%
05:00 +26°C° 0 mm 2 mps 756 mmHg 93%
06:00 +26°C° 0 mm 2 mps 756 mmHg 94%
07:00 +28°C° 0 mm 2 mps 757 mmHg 83%
08:00 +30°C° 0 mm 2 mps 757 mmHg 72%
09:00 +33°C° 0 mm 3 mps 758 mmHg 61%
10:00 +35°C° 0 mm 3 mps 758 mmHg 54%
11:00 +37°C° 0 mm 4 mps 757 mmHg 47%
12:00 +40°C° 0 mm 4 mps 757 mmHg 40%
13:00 +40°C° 0 mm 4 mps 756 mmHg 39%
14:00 +40°C° 0 mm 5 mps 755 mmHg 38%
15:00 +40°C° 0 mm 5 mps 755 mmHg 37%
16:00 +37°C° 0 mm 5 mps 755 mmHg 43%
17:00 +35°C° 0 mm 5 mps 755 mmHg 49%
18:00 +34°C° 0 mm 5 mps 756 mmHg 54%
19:00 +32°C° 0 mm 5 mps 756 mmHg 61%
20:00 +30°C° 0 mm 5 mps 757 mmHg 68%
21:00 +29°C° 0 mm 5 mps 757 mmHg 76%
22:00 +28°C° 0 mm 5 mps 757 mmHg 78%
23:00 +28°C° 0 mm 4 mps 757 mmHg 81%

23 Octubre, Viernes

Tiempo Temperatura Precipitaciones Viento Presión Humedad
00:00 +27°C° 0 mm 4 mps 757 mmHg 84%
01:00 +27°C° 0 mm 4 mps 757 mmHg 87%
02:00 +27°C° 0 mm 3 mps 756 mmHg 89%
03:00 +26°C° 0 mm 3 mps 756 mmHg 91%
04:00 +26°C° 0 mm 3 mps 756 mmHg 92%
05:00 +26°C° 0 mm 3 mps 756 mmHg 93%
06:00 +25°C° 0 mm 2 mps 757 mmHg 94%
07:00 +28°C° 0 mm 3 mps 757 mmHg 84%
08:00 +30°C° 0 mm 3 mps 758 mmHg 73%
09:00 +33°C° 0 mm 4 mps 758 mmHg 63%
10:00 +35°C° 0 mm 4 mps 758 mmHg 55%
11:00 +37°C° 0 mm 5 mps 757 mmHg 47%
12:00 +39°C° 0 mm 5 mps 757 mmHg 39%
13:00 +39°C° 0 mm 5 mps 756 mmHg 39%
14:00 +39°C° 0 mm 6 mps 755 mmHg 38%
15:00 +39°C° 0 mm 6 mps 754 mmHg 37%
16:00 +38°C° 0 mm 6 mps 754 mmHg 42%
17:00 +35°C° 0 mm 6 mps 755 mmHg 47%
18:00 +33°C° 0 mm 5 mps 755 mmHg 52%
19:00 +32°C° 0 mm 5 mps 755 mmHg 60%
20:00 +30°C° 0 mm 5 mps 756 mmHg 68%
21:00 +29°C° 0 mm 5 mps 756 mmHg 76%
22:00 +28°C° 0 mm 5 mps 757 mmHg 79%
23:00 +28°C° 0 mm 4 mps 757 mmHg 81%

24 Octubre, Sábado

Tiempo Temperatura Precipitaciones Viento Presión Humedad
00:00 +27°C° 0 mm 4 mps 757 mmHg 84%
01:00 +27°C° 0 mm 3 mps 757 mmHg 86%
02:00 +27°C° 0 mm 3 mps 756 mmHg 88%
03:00 +26°C° 0 mm 3 mps 756 mmHg 90%
04:00 +26°C° 0 mm 3 mps 756 mmHg 91%
05:00 +26°C° 0 mm 3 mps 756 mmHg 92%
06:00 +26°C° 0 mm 2 mps 757 mmHg 94%
07:00 +28°C° 0 mm 3 mps 757 mmHg 84%
08:00 +30°C° 0 mm 3 mps 758 mmHg 74%
09:00 +33°C° 0 mm 4 mps 758 mmHg 64%
10:00 +34°C° 0 mm 4 mps 758 mmHg 59%
11:00 +35°C° 0 mm 4 mps 757 mmHg 54%
12:00 +36°C° 0 mm 4 mps 757 mmHg 49%
13:00 +37°C° 0 mm 5 mps 756 mmHg 47%
14:00 +37°C° 0 mm 5 mps 755 mmHg 44%
15:00 +39°C° 0 mm 5 mps 754 mmHg 42%
16:00 +36°C° 0 mm 5 mps 754 mmHg 46%
17:00 +35°C° 0 mm 5 mps 754 mmHg 49%
18:00 +33°C° 0 mm 5 mps 754 mmHg 53%
19:00 +32°C° 0 mm 5 mps 755 mmHg 60%
20:00 +30°C° 0 mm 5 mps 755 mmHg 67%
21:00 +29°C° 0 mm 5 mps 756 mmHg 74%
22:00 +28°C° 0 mm 4 mps 756 mmHg 79%
23:00 +27°C° 0 mm 4 mps 756 mmHg 83%

25 Octubre, Domingo

Tiempo Temperatura Precipitaciones Viento Presión Humedad
00:00 +27°C° 0 mm 3 mps 756 mmHg 87%
01:00 +26°C° 0 mm 3 mps 756 mmHg 89%
02:00 +26°C° 0 mm 3 mps 755 mmHg 92%
03:00 +26°C° 0 mm 2 mps 755 mmHg 94%
04:00 +25°C° 0 mm 2 mps 755 mmHg 95%
05:00 +25°C° 0 mm 2 mps 756 mmHg 95%
06:00 +25°C° 0 mm 2 mps 756 mmHg 95%
07:00 +28°C° 0 mm 3 mps 756 mmHg 84%
08:00 +30°C° 0 mm 3 mps 757 mmHg 72%
09:00 +33°C° 0 mm 3 mps 757 mmHg 61%
10:00 +35°C° 0 mm 4 mps 757 mmHg 54%
11:00 +36°C° 0 mm 4 mps 756 mmHg 47%
12:00 +38°C° 0 mm 4 mps 756 mmHg 40%
13:00 +38°C° 0 mm 4 mps 755 mmHg 39%
14:00 +38°C° 0 mm 4 mps 754 mmHg 39%
15:00 +40°C° 0 mm 5 mps 753 mmHg 38%
16:00 +37°C° 0 mm 5 mps 754 mmHg 43%
17:00 +36°C° 0 mm 5 mps 754 mmHg 48%
18:00 +34°C° 0 mm 5 mps 754 mmHg 53%
19:00 +33°C° 0 mm 5 mps 754 mmHg 60%
20:00 +30°C° 0 mm 5 mps 755 mmHg 68%
21:00 +29°C° 0 mm 5 mps 756 mmHg 76%
22:00 +28°C° 0 mm 4 mps 756 mmHg 79%
23:00 +28°C° 0 mm 4 mps 756 mmHg 83%

26 Octubre, Lunes

Tiempo Temperatura Precipitaciones Viento Presión Humedad
00:00 +27°C° 0 mm 4 mps 756 mmHg 86%
01:00 +27°C° 0 mm 4 mps 755 mmHg 88%
02:00 +27°C° 0 mm 3 mps 755 mmHg 90%
03:00 +26°C° 0 mm 3 mps 755 mmHg 92%
04:00 +26°C° 0 mm 3 mps 755 mmHg 93%
05:00 +26°C° 0 mm 3 mps 755 mmHg 94%
06:00 +25°C° 0 mm 3 mps 755 mmHg 95%
07:00 +28°C° 0 mm 3 mps 756 mmHg 84%
08:00 +30°C° 0 mm 3 mps 756 mmHg 73%
09:00 +33°C° 0 mm 4 mps 757 mmHg 63%
10:00 +35°C° 0 mm 4 mps 756 mmHg 55%
11:00 +37°C° 0 mm 4 mps 756 mmHg 47%
12:00 +39°C° 0 mm 5 mps 756 mmHg 40%
13:00 +39°C° 0 mm 5 mps 755 mmHg 39%
14:00 +40°C° 0 mm 5 mps 754 mmHg 38%
15:00 +40°C° 0 mm 5 mps 753 mmHg 36%
16:00 +37°C° 0 mm 5 mps 753 mmHg 42%
17:00 +35°C° 0 mm 5 mps 754 mmHg 47%
18:00 +34°C° 0 mm 5 mps 754 mmHg 53%
19:00 +32°C° 0 mm 5 mps 754 mmHg 61%
20:00 +30°C° 0 mm 5 mps 755 mmHg 68%
21:00 +28°C° 0 mm 5 mps 756 mmHg 76%
22:00 +28°C° 0 mm 4 mps 756 mmHg 80%
23:00 +27°C° 0 mm 4 mps 756 mmHg 84%
Mostrar más

Necesitamos Su Consentimiento

Meteoprog y nuestros Proveedores de Servicios pueden almacenar y acceder a sus datos personales como cookies, identificadores de dispositivo u otras tecnologías similares de su dispositivo y procesar dichos datos para personalizar contenido y anuncios, además de ofrecer funciones de redes sociales y analizar el tráfico.

  • Almacenar y/o acceder a información en su dispositivo

    Se puede almacenar o acceder a cookies, identificadores de dispositivo u otra información de su dispositivo para los fines anteriormente indicados.

  • Anuncios y contenido personalizados, medición de anuncios y contenido, percepciones del público, y desarrollo de productos

    Los anuncios y el contenido pueden personalizarse en base a su perfil. Se pueden añadir más datos para personalizar mejor los anuncios y contenidos. Se puede medir el rendimiento de los anuncios y contenidos. Se puede obtener la percepción sobre el público que ha visto los anuncios y contenidos. Dichos datos pueden usarse para desarrollar o mejorar la experiencia del usuario, sistemas y software.

Al hacer clic en ‘Estoy De Acuerdo’ usted permitirá el uso de las cookies, identificadores de dispositivo, balizas web u otras tecnologías similares indicadas. Su configuración puede cambiarse desde el navegador de su dispositivo.

Para ciertos fines, los intereses legítimos pueden ser considerados por encima del consentimiento. Puede leer más sobre ello en nuestra Política de Privacidad y Cookies.